EW7321 Gulfport FL US current weather conditions

sailwx.info

Wind from 327 at 0 knots gusting 5

Air temperature 32.8° C
Dewpoint 20.6° C

Last reported at 2019-Sep-17 20:09 UTC.
Time now 2019-Sep-17 21:08 UTC

Location: N 27°45' W 082°42'.
View on Google Maps.

See reports from other nearby stations

  
Tides and Currents Weather Stations Pressure Air Temp Water Temp Dewpoint Dewpoint Depression Visibility Wind Speed Wind Dir Waves Ship Positions
date/time (UTC)wind fromknots sea level pressurealtimeterstation pressurevisibilityair tempwater tempwave heightnotes
2019-Sep-17 20:09 327 0 gusting 5 32.8
2019-Sep-17 20:04 299 0 gusting 5 32.8
2019-Sep-17 19:59 314 1 gusting 5 32.8
2019-Sep-17 19:54 311 0 gusting 4 32.8
2019-Sep-17 19:49 330 1 gusting 6 33.3
2019-Sep-17 19:44 318 2 gusting 7 33.3
2019-Sep-17 19:39 329 1 gusting 7 33.3
2019-Sep-17 19:34 013 0 gusting 5 33.3
2019-Sep-17 19:29 304 1 gusting 6 33.3
2019-Sep-17 19:24 315 1 gusting 6 33.3
2019-Sep-17 19:19 321 1 gusting 6 33.3
2019-Sep-17 19:14 034 1 gusting 6 33.3
2019-Sep-17 19:09 318 0 gusting 5 33.3
2019-Sep-17 19:04 341 0 gusting 5 33.3
2019-Sep-17 18:59 333 1 gusting 6 33.3
2019-Sep-17 18:54 331 1 gusting 6 33.3
2019-Sep-17 18:49 316 2 gusting 8 32.8
2019-Sep-17 18:44 314 1 gusting 8 33.3
2019-Sep-17 18:39 316 1 gusting 8 33.3
2019-Sep-17 18:34 306 1 gusting 5 32.8
2019-Sep-17 18:29 293 1 gusting 6 33.3
2019-Sep-17 18:24 319 1 gusting 6 33.3
2019-Sep-17 18:19 324 1 gusting 4 33.3
2019-Sep-17 18:14 313 0 gusting 4 32.8
2019-Sep-17 18:09 332 1 gusting 7 32.8
2019-Sep-17 18:04 283 2 gusting 7 32.8
2019-Sep-17 17:59 321 0 gusting 6 33.3
2019-Sep-17 17:54 305 0 gusting 3 33.3
2019-Sep-17 17:49 318 0 gusting 5 32.8
2019-Sep-17 17:44 293 1 gusting 6 32.8
2019-Sep-17 17:39 328 2 gusting 6 32.8
2019-Sep-17 17:34 321 1 gusting 6 32.8
2019-Sep-17 17:29 328 1 gusting 6 32.8
2019-Sep-17 17:24 319 1 gusting 6 32.8
2019-Sep-17 17:19 326 1 gusting 6 32.8
2019-Sep-17 17:14 296 0 gusting 6 32.8
2019-Sep-17 17:09 305 32.2
2019-Sep-17 17:04 330 0 gusting 3 32.2
2019-Sep-17 16:59 326 32.2
2019-Sep-17 16:54 287 0 gusting 4 32.8
2019-Sep-17 16:49 341 0 gusting 4 32.8
2019-Sep-17 16:44 312 32.8
2019-Sep-17 16:39 338 0 gusting 3 33.3
2019-Sep-17 16:34 338 0 gusting 5 33.3
2019-Sep-17 16:29 311 0 gusting 5 33.3
2019-Sep-17 16:24 307 0 gusting 5 33.3
2019-Sep-17 16:19 354 0 gusting 3 33.3
2019-Sep-17 16:14 323 0 gusting 4 32.8
2019-Sep-17 16:09 322 0 gusting 4 32.8
2019-Sep-17 16:04 330 32.8
2019-Sep-17 15:59 322 33.3
2019-Sep-17 15:54 324 0 gusting 4 32.8
2019-Sep-17 15:49 319 0 gusting 4 32.8
2019-Sep-17 15:44 312 0 gusting 4 32.8
2019-Sep-17 15:39 325 0 gusting 4 32.2
2019-Sep-17 15:34 316 32.2
2019-Sep-17 15:29 304 32.2
2019-Sep-17 15:24 306 32.2
2019-Sep-17 15:19 306 32.2
2019-Sep-17 15:14 323 32.2
2019-Sep-17 15:09 323 31.7
2019-Sep-17 15:04 005 31.7
2019-Sep-17 14:59 301 31.7
2019-Sep-17 14:54 282 31.7
2019-Sep-17 14:49 283 31.7
2019-Sep-17 14:44 314 31.7
2019-Sep-17 14:39 315 31.1
2019-Sep-17 14:34 323 0 gusting 5 31.1
2019-Sep-17 14:29 345 0 gusting 5 31.1
2019-Sep-17 14:24 351 1 gusting 6 30.6
2019-Sep-17 14:19 321 1 gusting 6 30.6
2019-Sep-17 14:14 300 1 gusting 5 30.6
2019-Sep-17 14:09 325 1 gusting 6 30.6
2019-Sep-17 14:03 353 0 gusting 5 30.6
2019-Sep-17 13:58 352 0 gusting 4 30.0
2019-Sep-17 13:53 315 0 gusting 4 30.0
2019-Sep-17 13:48 318 0 gusting 4 30.0
2019-Sep-17 13:43 321 0 gusting 3 30.0
2019-Sep-17 13:38 009 0 gusting 5 29.4
2019-Sep-17 13:33 330 0 gusting 5 29.4
2019-Sep-17 13:28 342 0 gusting 1 29.4
2019-Sep-17 13:23 338 29.4
2019-Sep-17 13:18 340 29.4
2019-Sep-17 13:13 349 29.4
2019-Sep-17 13:08 354 29.4
2019-Sep-17 13:03 329 29.4
2019-Sep-17 12:58 327 28.9
2019-Sep-17 12:53 327 28.9
2019-Sep-17 12:48 327 28.3
2019-Sep-17 12:43 327 27.8
2019-Sep-17 12:38 327 27.8
2019-Sep-17 12:33 327 27.2
2019-Sep-17 12:28 327 26.7
2019-Sep-17 12:23 327 26.1
2019-Sep-17 12:18 327 25.6
2019-Sep-17 12:13 327 25.6
2019-Sep-17 12:08 327 25.0
2019-Sep-17 12:03 327 25.0
2019-Sep-17 11:58 327 24.4
2019-Sep-17 11:53 327 24.4
2019-Sep-17 11:48 327 24.4
2019-Sep-17 11:43 327 23.9
2019-Sep-17 11:38 327 23.9
2019-Sep-17 11:33 327 23.9
2019-Sep-17 11:28 327 23.9
2019-Sep-17 11:23 327 23.9
2019-Sep-17 11:18 327 23.9
2019-Sep-17 11:13 327 23.9
2019-Sep-17 11:08 327 23.9
2019-Sep-17 11:03 327 23.9
2019-Sep-17 10:58 327 23.9
2019-Sep-17 10:53 327 23.9
2019-Sep-17 10:48 327 23.9
2019-Sep-17 10:43 327 23.9
2019-Sep-17 10:38 327 23.9
2019-Sep-17 10:33 327 23.9
2019-Sep-17 10:28 327 23.9
2019-Sep-17 10:23 327 23.9
2019-Sep-17 10:18 327 23.9
2019-Sep-17 10:13 327 23.9
2019-Sep-17 10:07 327 23.9
2019-Sep-17 10:00 327 23.9
2019-Sep-17 09:55 327 23.9
2019-Sep-17 09:50 327 23.9
2019-Sep-17 09:45 327 23.9
2019-Sep-17 09:40 327 23.9
2019-Sep-17 09:35 327 23.9
2019-Sep-17 09:30 327 23.9
2019-Sep-17 09:25 327 23.9
2019-Sep-17 09:20 327 23.9
2019-Sep-17 09:15 327 23.9
2019-Sep-17 09:10 327 23.9
2019-Sep-17 09:05 327 23.9
2019-Sep-17 09:00 327 23.9
2019-Sep-17 08:55 327 23.9
2019-Sep-17 08:50 327 23.9
2019-Sep-17 08:45 327 23.9
2019-Sep-17 08:40 327 23.9
2019-Sep-17 08:35 327 23.9
2019-Sep-17 08:30 327 24.4
2019-Sep-17 08:25 327 24.4
2019-Sep-17 08:20 327 24.4
2019-Sep-17 08:15 327 24.4
2019-Sep-17 08:09 327 24.4
2019-Sep-17 08:04 327 24.4
2019-Sep-17 07:59 327 24.4
2019-Sep-17 07:54 327 24.4
2019-Sep-17 07:49 327 24.4
2019-Sep-17 07:44 327 24.4
2019-Sep-17 07:39 327 24.4
2019-Sep-17 07:34 327 24.4
2019-Sep-17 07:29 327 24.4
2019-Sep-17 07:24 327 24.4
2019-Sep-17 07:19 327 24.4
2019-Sep-17 07:14 327 24.4
2019-Sep-17 07:09 327 24.4
2019-Sep-17 07:04 327 24.4
2019-Sep-17 06:59 327 24.4
2019-Sep-17 06:54 327 24.4
2019-Sep-17 06:49 327 24.4
2019-Sep-17 06:44 327 25.0
2019-Sep-17 06:39 327 25.0
2019-Sep-17 06:34 327 25.0
2019-Sep-17 06:29 327 25.0
2019-Sep-17 06:24 327 25.0
2019-Sep-17 06:19 327 25.0
2019-Sep-17 06:14 327 25.0
2019-Sep-17 06:09 327 25.0
2019-Sep-17 06:04 327 25.0
2019-Sep-17 05:59 327 25.0
2019-Sep-17 05:54 327 25.0
2019-Sep-17 05:49 327 25.0
2019-Sep-17 05:44 327 25.0
2019-Sep-17 05:39 327 25.0
2019-Sep-17 05:34 327 25.0
2019-Sep-17 05:29 327 25.0
2019-Sep-17 05:24 327 25.0
2019-Sep-17 05:19 327 25.0
2019-Sep-17 05:14 327 25.0
2019-Sep-17 05:09 327 25.0
2019-Sep-17 05:04 327 25.6
2019-Sep-17 04:59 327 25.6
2019-Sep-17 04:54 327 25.6
2019-Sep-17 04:49 327 25.0
2019-Sep-17 04:44 327 25.6
2019-Sep-17 04:39 327 25.6
2019-Sep-17 04:34 327 25.6
2019-Sep-17 04:29 327 25.6
2019-Sep-17 04:24 327 25.6
2019-Sep-17 04:19 327 25.6
2019-Sep-17 04:14 327 25.6
2019-Sep-17 04:09 327 26.1
2019-Sep-17 04:04 327 26.1
2019-Sep-17 03:59 327 26.1
2019-Sep-17 03:54 327 26.1
2019-Sep-17 03:49 327 26.1
2019-Sep-17 03:44 327 26.1
2019-Sep-17 03:39 327 26.1
2019-Sep-17 03:34 327 26.7
2019-Sep-17 03:29 327 26.7
2019-Sep-17 03:24 327 26.7
2019-Sep-17 03:19 327 26.7
2019-Sep-17 03:14 327 26.7
2019-Sep-17 03:09 327 26.7
2019-Sep-17 03:04 327 26.7
2019-Sep-17 02:59 327 26.7
2019-Sep-17 02:54 327 26.7
2019-Sep-17 02:49 327 26.7
2019-Sep-17 02:44 327 26.7
2019-Sep-17 02:39 327 27.2
2019-Sep-17 02:34 327 27.2
2019-Sep-17 02:29 327 27.2
2019-Sep-17 02:24 330 27.2
2019-Sep-17 02:19 330 27.2
2019-Sep-17 02:14 330 27.2
2019-Sep-17 02:09 330 27.2
2019-Sep-17 02:04 330 27.2
2019-Sep-17 01:59 330 27.2
2019-Sep-17 01:54 330 27.2
2019-Sep-17 01:49 330 27.2
2019-Sep-17 01:44 327 27.2
2019-Sep-17 01:39 327 27.2
2019-Sep-17 01:34 326 27.2
2019-Sep-17 01:29 326 27.8
2019-Sep-17 01:24 327 27.8
2019-Sep-17 01:19 312 27.8
2019-Sep-17 01:14 341 27.8
2019-Sep-17 01:09 343 27.8
2019-Sep-17 01:04 330 27.8
2019-Sep-17 00:59 330 27.8
2019-Sep-17 00:54 330 27.8
2019-Sep-17 00:49 330 27.8
2019-Sep-17 00:44 330 27.8
2019-Sep-17 00:39 345 27.8
2019-Sep-17 00:34 324 27.8
2019-Sep-17 00:29 323 27.8
2019-Sep-17 00:24 319 27.8
2019-Sep-17 00:19 319 27.8
2019-Sep-17 00:14 318 27.8
2019-Sep-17 00:09 330 27.8
2019-Sep-17 00:04 330 28.3
2019-Sep-16 23:59 310 28.3
2019-Sep-16 23:54 346 28.3
2019-Sep-16 23:48 328 28.3
2019-Sep-16 23:44 328 28.3
2019-Sep-16 23:39 328 0 gusting 3 28.3
2019-Sep-16 23:34 319 0 gusting 3 28.3
2019-Sep-16 23:28 316 0 gusting 4 28.9
2019-Sep-16 23:23 325 1 gusting 5 28.9
2019-Sep-16 23:18 308 1 gusting 5 28.9
2019-Sep-16 23:13 321 0 gusting 4 28.9
2019-Sep-16 23:08 328 28.9
2019-Sep-16 23:03 352 0 gusting 3 29.4
2019-Sep-16 22:58 317 0 gusting 5 29.4
2019-Sep-16 22:53 311 0 gusting 5 29.4
2019-Sep-16 22:48 311 1 gusting 5 29.4
2019-Sep-16 22:43 292 0 gusting 6 29.4
2019-Sep-16 22:38 318 0 gusting 6 29.4
2019-Sep-16 22:33 332 1 gusting 6 29.4
2019-Sep-16 22:28 320 1 gusting 6 30.0
2019-Sep-16 22:23 316 0 gusting 4 30.0
2019-Sep-16 22:18 314 30.0
2019-Sep-16 22:13 311 0 gusting 5 30.0
2019-Sep-16 22:08 314 0 gusting 5 30.0
2019-Sep-16 22:03 328 29.4
2019-Sep-16 21:58 317 0 gusting 3 30.0
2019-Sep-16 21:53 303 30.0
2019-Sep-16 21:48 259 30.0
2019-Sep-16 21:43 300 0 gusting 4 30.0
2019-Sep-16 21:38 351 0 gusting 4 30.0
2019-Sep-16 21:33 317 30.0
2019-Sep-16 21:28 305 30.0
2019-Sep-16 21:23 291 30.0
2019-Sep-16 21:18 300 30.0
2019-Sep-16 21:13 324 30.0
2019-Sep-16 21:08 285 0 gusting 2 30.6
2019-Sep-16 21:03 333 0 gusting 4 30.6
2019-Sep-16 20:58 319 30.6
2019-Sep-16 20:53 270 30.6
2019-Sep-16 20:48 292 0 gusting 4 30.6
2019-Sep-16 20:43 314 0 gusting 6 31.1
2019-Sep-16 20:38 315 0 gusting 6 31.1
2019-Sep-16 20:33 302 31.1
2019-Sep-16 20:28 264 31.1
2019-Sep-16 20:23 328 31.1
2019-Sep-16 20:18 309 31.7
2019-Sep-16 20:13 309 31.7
2019-Sep-16 20:08 284 31.7
2019-Sep-16 20:03 338 31.7
2019-Sep-16 19:58 304 31.7
2019-Sep-16 19:53 305 31.7
2019-Sep-16 19:48 323 32.2
2019-Sep-16 19:42 314 32.2
2019-Sep-16 19:37 339 32.2
2019-Sep-16 19:32 311 32.2
2019-Sep-16 19:27 318 32.2
2019-Sep-16 19:22 311 32.8
2019-Sep-16 19:17 281 32.8
2019-Sep-16 19:12 329 32.8
2019-Sep-16 19:07 254 32.8
2019-Sep-16 19:02 272 32.8
2019-Sep-16 18:57 309 32.8
2019-Sep-16 18:52 325 32.8
2019-Sep-16 18:47 328 32.8
2019-Sep-16 18:42 300 32.8
2019-Sep-16 18:37 279 32.8
2019-Sep-16 18:32 312 32.8
2019-Sep-16 18:27 279 32.2
2019-Sep-16 18:22 307 0 gusting 5 32.2
2019-Sep-16 18:16 311 0 gusting 5 32.2
2019-Sep-16 18:11 271 0 gusting 4 32.2
2019-Sep-16 18:06 321 1 gusting 6 31.7
2019-Sep-16 18:01 323 1 gusting 6 31.7
2019-Sep-16 17:56 314 0 gusting 5 31.7
2019-Sep-16 17:51 317 1 gusting 6 31.1
2019-Sep-16 17:46 321 1 gusting 6 31.1
2019-Sep-16 17:41 326 0 gusting 6 31.7
2019-Sep-16 17:36 323 0 gusting 3 31.1
2019-Sep-16 17:31 310 30.6
2019-Sep-16 17:26 284 30.6
2019-Sep-16 17:21 283 30.6
2019-Sep-16 17:16 060 31.1
2019-Sep-16 17:11 338 31.1
2019-Sep-16 17:06 295 31.7
2019-Sep-16 17:01 279 31.7
2019-Sep-16 16:56 150 31.1
2019-Sep-16 16:51 092 30.6
2019-Sep-16 16:46 267 30.6
2019-Sep-16 16:41 315 30.6
2019-Sep-16 16:36 067 31.1
2019-Sep-16 16:31 149 31.1
2019-Sep-16 16:26 267 31.1
2019-Sep-16 16:21 330 31.7
2019-Sep-16 16:16 323 31.7
2019-Sep-16 16:11 323 0 gusting 4 31.1
2019-Sep-16 16:06 322 0 gusting 4 31.1
2019-Sep-16 16:01 317 31.7
2019-Sep-16 15:56 327 31.7
2019-Sep-16 15:51 069 31.7
2019-Sep-16 15:46 337 0 gusting 4 31.7
2019-Sep-16 15:41 323 0 gusting 4 31.1
2019-Sep-16 15:36 299 0 gusting 3 31.1
2019-Sep-16 15:31 326 0 gusting 3 31.1
2019-Sep-16 15:26 344 1 gusting 5 30.6
2019-Sep-16 15:21 297 1 gusting 5 30.6
2019-Sep-16 15:16 339 0 gusting 4 30.6
2019-Sep-16 15:11 323 0 gusting 3 30.6
2019-Sep-16 15:06 323 0 gusting 3 30.0
2019-Sep-16 15:00 328 0 gusting 3 30.0
2019-Sep-16 14:55 323 1 gusting 4 30.0
2019-Sep-16 14:50 342 0 gusting 4 30.0
2019-Sep-16 14:45 320 0 gusting 4 30.0
2019-Sep-16 14:40 352 0 gusting 4 29.4
2019-Sep-16 14:35 331 0 gusting 2 30.0
2019-Sep-16 14:30 330 29.4
2019-Sep-16 14:25 319 29.4
2019-Sep-16 14:20 012 29.4
2019-Sep-16 14:15 327 0 gusting 3 28.9
2019-Sep-16 14:10 326 29.4
2019-Sep-16 14:05 323 29.4
2019-Sep-16 14:00 354 28.9
2019-Sep-16 13:55 315 28.9
2019-Sep-16 13:50 314 0 gusting 4 28.3
2019-Sep-16 13:44 311 1 gusting 4 28.3
2019-Sep-16 13:39 325 0 gusting 4 28.3
2019-Sep-16 13:34 314 28.3
2019-Sep-16 13:29 300 0 gusting 4 27.8
2019-Sep-16 13:24 323 1 gusting 4 27.8
2019-Sep-16 13:19 279 0 gusting 4 27.2
2019-Sep-16 13:14 355 0 gusting 4 27.2
2019-Sep-16 13:09 342 0 gusting 4 26.7
2019-Sep-16 13:04 337 26.7
2019-Sep-16 12:59 326 26.7
2019-Sep-16 12:54 330 26.7
2019-Sep-16 12:49 326 26.1
2019-Sep-16 12:44 314 26.1
2019-Sep-16 12:39 338 26.1
2019-Sep-16 12:34 338 25.6
2019-Sep-16 12:29 338 25.6
2019-Sep-16 12:24 338 25.6
2019-Sep-16 12:19 344 25.6
2019-Sep-16 12:14 344 25.0
2019-Sep-16 12:09 344 25.0
2019-Sep-16 12:04 344 25.0
2019-Sep-16 11:59 324 24.4
2019-Sep-16 11:54 324 24.4
2019-Sep-16 11:49 324 24.4
2019-Sep-16 11:44 324 24.4
2019-Sep-16 11:39 324 24.4
2019-Sep-16 11:34 324 24.4
2019-Sep-16 11:29 324 24.4
2019-Sep-16 11:24 324 24.4
2019-Sep-16 11:19 324 24.4
2019-Sep-16 11:14 324 24.4
2019-Sep-16 11:09 324 24.4
2019-Sep-16 11:04 324 24.4
2019-Sep-16 10:59 324 24.4
2019-Sep-16 10:54 324 24.4
2019-Sep-16 10:49 324 24.4
2019-Sep-16 10:44 324 24.4
2019-Sep-16 10:39 324 24.4
2019-Sep-16 10:34 324 24.4
2019-Sep-16 10:29 324 24.4
2019-Sep-16 10:24 324 24.4
2019-Sep-16 10:19 324 24.4
2019-Sep-16 10:14 324 24.4
2019-Sep-16 10:09 324 24.4
2019-Sep-16 10:04 324 24.4
2019-Sep-16 09:59 324 24.4
2019-Sep-16 09:54 342 24.4
2019-Sep-16 09:49 342 24.4
2019-Sep-16 09:44 342 24.4
2019-Sep-16 09:39 342 24.4
2019-Sep-16 09:34 342 24.4
2019-Sep-16 09:29 342 24.4
2019-Sep-16 09:24 342 24.4
2019-Sep-16 09:19 342 24.4
2019-Sep-16 09:14 342 24.4
2019-Sep-16 09:09 341 24.4
2019-Sep-16 09:04 342 24.4
2019-Sep-16 08:59 342 24.4
2019-Sep-16 08:54 341 24.4
2019-Sep-16 08:49 342 24.4
2019-Sep-16 08:44 342 24.4
2019-Sep-16 08:39 341 24.4
2019-Sep-16 08:34 341 24.4
2019-Sep-16 08:29 341 24.4
2019-Sep-16 08:24 342 24.4
2019-Sep-16 08:19 342 24.4
2019-Sep-16 08:14 342 24.4
2019-Sep-16 08:09 342 24.4
2019-Sep-16 08:04 342 24.4
2019-Sep-16 07:59 342 24.4
2019-Sep-16 07:54 342 24.4
2019-Sep-16 07:49 341 24.4
2019-Sep-16 07:44 341 24.4
2019-Sep-16 07:39 342 24.4
2019-Sep-16 07:34 341 24.4
2019-Sep-16 07:29 341 24.4
2019-Sep-16 07:24 341 24.4
2019-Sep-16 07:19 342 24.4
2019-Sep-16 07:14 342 24.4
2019-Sep-16 07:09 341 24.4
2019-Sep-16 07:04 341 24.4
2019-Sep-16 06:59 342 24.4
2019-Sep-16 06:54 342 24.4
2019-Sep-16 06:49 342 24.4
2019-Sep-16 06:44 342 24.4
2019-Sep-16 06:39 341 24.4
2019-Sep-16 06:34 341 24.4
2019-Sep-16 06:29 342 24.4
2019-Sep-16 06:24 341 24.4
2019-Sep-16 06:18 342 24.4
2019-Sep-16 06:13 342 24.4
2019-Sep-16 06:08 342 24.4
2019-Sep-16 06:03 342 24.4
2019-Sep-16 05:58 341 24.4
2019-Sep-16 05:53 342 24.4
2019-Sep-16 05:48 342 24.4
2019-Sep-16 05:43 342 25.0
2019-Sep-16 05:38 342 25.0
2019-Sep-16 05:33 342 25.0
2019-Sep-16 05:28 342 25.0
2019-Sep-16 05:23 342 25.0
2019-Sep-16 05:18 341 25.0
2019-Sep-16 05:13 342 25.0
2019-Sep-16 05:08 342 25.0
2019-Sep-16 05:03 342 25.0
2019-Sep-16 04:58 342 25.0
2019-Sep-16 04:53 342 25.0
2019-Sep-16 04:48 342 25.0
2019-Sep-16 04:43 342 25.6
2019-Sep-16 04:38 342 25.6
2019-Sep-16 04:33 342 25.6
2019-Sep-16 04:28 341 25.6
2019-Sep-16 04:23 342 25.6
2019-Sep-16 04:18 342 25.6
2019-Sep-16 04:13 316 25.6
2019-Sep-16 04:08 316 25.6
2019-Sep-16 04:03 316 25.6
2019-Sep-16 03:58 316 25.6
2019-Sep-16 03:53 316 25.6
2019-Sep-16 03:48 319 25.6
2019-Sep-16 03:43 318 25.6
2019-Sep-16 03:38 328 25.6
2019-Sep-16 03:33 328 25.6
2019-Sep-16 03:28 328 25.6
2019-Sep-16 03:23 328 25.6
2019-Sep-16 03:18 328 25.6
2019-Sep-16 03:13 328 25.6
2019-Sep-16 03:08 328 25.6
2019-Sep-16 03:02 328 25.6
2019-Sep-16 02:57 328 25.6
2019-Sep-16 02:52 328 25.0
2019-Sep-16 02:47 328 25.0
2019-Sep-16 02:42 328 25.0
2019-Sep-16 02:37 328 25.0
2019-Sep-16 02:31 328 25.0
2019-Sep-16 02:26 328 25.0
2019-Sep-16 02:21 328 25.0
2019-Sep-16 02:16 328 25.0
2019-Sep-16 02:11 328 25.0
2019-Sep-16 02:06 328 25.0
2019-Sep-16 02:01 328 25.0
2019-Sep-16 01:56 328 25.6
2019-Sep-16 01:51 328 25.6
2019-Sep-16 01:46 323 25.6
2019-Sep-16 01:41 321 25.6
2019-Sep-16 01:36 338 25.6
2019-Sep-16 01:31 343 25.6
2019-Sep-16 01:26 027 25.6
2019-Sep-16 01:21 028 25.6
2019-Sep-16 01:16 028 25.6
2019-Sep-16 01:11 028 25.6
2019-Sep-16 01:06 028 25.6
2019-Sep-16 01:01 028 25.6
2019-Sep-16 00:56 028 25.0
2019-Sep-16 00:51 028 25.0
2019-Sep-16 00:46 028 25.6
2019-Sep-16 00:41 028 25.0
2019-Sep-16 00:36 028 25.0
2019-Sep-16 00:31 028 25.0
2019-Sep-16 00:26 028 25.0
2019-Sep-16 00:21 028 25.0
2019-Sep-16 00:16 028 25.0
2019-Sep-16 00:11 028 25.0
2019-Sep-16 00:06 028 25.0
2019-Sep-15 23:59 028 25.0
2019-Sep-15 23:54 024 25.0
2019-Sep-15 23:49 023 25.0
2019-Sep-15 23:44 023 25.0
2019-Sep-15 23:39 023 25.0
2019-Sep-15 23:34 023 25.0
2019-Sep-15 23:29 023 25.0
2019-Sep-15 23:23 023 25.0
2019-Sep-15 23:18 326 25.0
2019-Sep-15 23:13 327 25.0
2019-Sep-15 23:08 326 25.0
2019-Sep-15 23:03 326 24.4
2019-Sep-15 22:58 326 24.4
2019-Sep-15 22:53 326 24.4
2019-Sep-15 22:48 326 24.4
2019-Sep-15 22:43 327 24.4
2019-Sep-15 22:38 336 24.4
2019-Sep-15 22:33 337 24.4
2019-Sep-15 22:28 336 24.4
2019-Sep-15 22:23 337 24.4
2019-Sep-15 22:18 337 23.9
2019-Sep-15 22:13 337 23.9
2019-Sep-15 22:08 337 23.9
2019-Sep-15 22:03 329 23.9
2019-Sep-15 21:58 329 23.9
2019-Sep-15 21:53 329 23.9
2019-Sep-15 21:48 333 23.9
2019-Sep-15 21:43 344 0 gusting 3 23.9
2019-Sep-15 21:38 319 0 gusting 3 24.4
2019-Sep-15 21:33 316 0 gusting 6 24.4
2019-Sep-15 21:28 322 2 gusting 6 25.6
2019-Sep-15 21:23 314 3 gusting 13 26.7
2019-Sep-15 21:18 311 2 gusting 13 27.8
2019-Sep-15 21:13 316 0 gusting 5 28.9
2019-Sep-15 21:08 333 0 gusting 6 30.0
2019-Sep-15 21:03 062 0 gusting 6 30.6